This is the latest recevied weather packets stored in our database for station/object W0BJ-1. If no packets are shown the sender has not sent any weather packets the latest 10 day(s).
| Time | Temp. | Humidity | Pressure | Rain* | Wind** | Luminosity | Snow |
|---|---|---|---|---|---|---|---|
| 1777505141 | 13.89° C | 55% | 1017.3 hPa | 0 mm | - | 132 W/m² | - |
| 1777498839 | 15.56° C | 54% | 1017.2 hPa | 0 mm | - | 598 W/m² | - |
| 1777498251 | 15° C | 55% | 1017.2 hPa | 0 mm | - | 617 W/m² | - |
| 1777497639 | 15° C | 54% | 1017.2 hPa | 0 mm | - | 262 W/m² | - |
| 1777495240 | 15.56° C | 52% | 1017.7 hPa | 0 mm | - | 276 W/m² | - |
| 1777494039 | 15.56° C | 52% | 1017.9 hPa | 0 mm | - | 705 W/m² | - |
| 1777493753 | 15.56° C | 53% | 1017.9 hPa | 0 mm | - | 420 W/m² | - |
| 1777493141 | 15.56° C | 52% | 1017.9 hPa | 0 mm | - | 497 W/m² | - |
| 1777492860 | 15.56° C | 52% | 1018 hPa | 0 mm | - | 591 W/m² | - |
| 1777492539 | 15.56° C | 53% | 1018.1 hPa | 0 mm | - | 548 W/m² | - |
| 1777491953 | 16.11° C | 54% | 1018.3 hPa | 0 mm | - | 434 W/m² | - |
| 1777491339 | 16.11° C | 52% | 1018.3 hPa | 0 mm | - | 601 W/m² | - |
| 1777490739 | 16.67° C | 55% | 1018.4 hPa | 0 mm | - | 649 W/m² | - |
| 1777490154 | 16.67° C | 52% | 1018.4 hPa | 0 mm | - | 707 W/m² | - |
| 1777489540 | 16.67° C | 53% | 1018.5 hPa | 0 mm | - | 944 W/m² | - |
| 1777489252 | 16.67° C | 52% | 1018.5 hPa | 0 mm | - | 969 W/m² | - |
| 1777488652 | 16.67° C | 56% | 1018.6 hPa | 0 mm | - | 1067 W/m² | - |
| 1777487739 | 15.56° C | 56% | 1018.6 hPa | 0 mm | - | 1071 W/m² | - |
| 1777486552 | 16.11° C | 53% | 1018.6 hPa | 0 mm | - | 381 W/m² | - |
| 1777486240 | 16.11° C | 57% | 1018.6 hPa | 0 mm | - | 1118 W/m² | - |
| 1777485940 | 15.56° C | 54% | 1018.6 hPa | 0 mm | - | 1042 W/m² | - |
| 1777485039 | 16.11° C | 53% | 1018.8 hPa | 0 mm | - | 1099 W/m² | - |
| 1777483539 | 15° C | 57% | 1018.8 hPa | 0 mm | - | 257 W/m² | - |
| 1777481437 | 15° C | 55% | 1018.9 hPa | 0 mm | - | 939 W/m² | - |
| 1777479368 | 15° C | 55% | 1018.8 hPa | 0 mm | - | 817 W/m² | - |
* Rain latest hour (hover to see other rain measurements)
** Current wind speed in m/s (hover to see current wind gust speed)